| time (UTC) | temp C | wind direction | speed KPH | gust KPH | rain 1hr cm | rain 24hr cm | rain mn cm | humidity % | barometer mb |
| 20260902203955 | 21 | 166 | 0.0 | 4.8 | 0.00 | 0.05 | 0.00 | 70 | 1020.2 |
| 20260902202955 | 21 | 178 | 0.0 | 6.4 | 0.00 | 0.08 | 0.00 | 69 | 1020.2 |
| 20260902202437 | 21 | 51 | 0.0 | 4.8 | 0.00 | 0.10 | 0.00 | 66 | 1020.3 |
| 20260902200953 | 21 | 92 | 1.6 | 12.9 | 0.00 | 0.13 | 0.00 | 65 | 1020.5 |
| 20260902195954 | 21 | 75 | 0.0 | 9.7 | 0.00 | 0.13 | 0.00 | 67 | 1020.4 |
| 20260902194952 | 21 | 107 | 0.0 | 1.6 | 0.00 | 0.18 | 0.00 | 68 | 1020.4 |
| 20260902193951 | 21 | 248 | 0.0 | 8.0 | 0.00 | 0.20 | 0.00 | 66 | 1020.7 |
| 20260902192952 | 22 | 104 | 0.0 | 6.4 | 0.00 | 0.23 | 0.00 | 67 | 1020.8 |
| 20260902191951 | 22 | 145 | 0.0 | 0.0 | 0.00 | 0.28 | 0.00 | 69 | 1020.8 |
| 20260902190951 | 22 | 137 | 0.0 | 4.8 | 0.00 | 0.28 | 0.00 | 69 | 1020.8 |
| 20260902185951 | 22 | 139 | 0.0 | 11.3 | 0.00 | 0.36 | 0.00 | 69 | 1020.6 |
| 20260902184950 | 22 | 112 | 1.6 | 12.9 | 0.00 | 0.46 | 0.00 | 67 | 1020.6 |
| 20260902183951 | 22 | 148 | 1.6 | 11.3 | 0.00 | 0.64 | 0.00 | 66 | 1020.8 |
| 20260902182952 | 22 | 123 | 1.6 | 14.5 | 0.00 | 0.79 | 0.00 | 68 | 1020.7 |
| 20260902181948 | 22 | 9 | 0.0 | 6.4 | 0.00 | 0.97 | 0.00 | 68 | 1020.7 |
| 20260902180950 | 22 | 155 | 0.0 | 8.0 | 0.00 | 1.07 | 0.00 | 71 | 1020.8 |
| 20260902175949 | 22 | 341 | 0.0 | 1.6 | 0.00 | 1.09 | 0.00 | 70 | 1020.8 |
| 20260902174949 | 22 | 66 | 0.0 | 1.6 | 0.00 | 1.09 | 0.00 | 72 | 1020.8 |
| 20260902173948 | 22 | 177 | 0.0 | 6.4 | 0.00 | 1.09 | 0.00 | 72 | 1020.6 |
| 20260902172952 | 22 | 68 | 0.0 | 6.4 | 0.00 | 1.09 | 0.00 | 73 | 1020.8 |
| 20260902171940 | 22 | 168 | 0.0 | 0.0 | 0.00 | 1.09 | 0.00 | 72 | 1020.8 |
| 20260902170938 | 22 | 52 | 1.6 | 11.3 | 0.00 | 1.12 | 0.00 | 70 | 1020.8 |
| 20260902165939 | 22 | 146 | 1.6 | 9.7 | 0.00 | 1.12 | 0.00 | 73 | 1021.0 |
| 20260902164939 | 22 | 256 | 3.2 | 11.3 | 0.00 | 1.14 | 0.00 | 74 | 1021.0 |
| 20260902163938 | 21 | 153 | 1.6 | 11.3 | 0.00 | 1.17 | 0.00 | 76 | 1021.3 |
| 20260902163419 | 21 | 169 | 0.0 | 4.8 | 0.00 | 1.19 | 0.00 | 81 | 1021.4 |
| 20260902161936 | 21 | 146 | 1.6 | 9.7 | 0.00 | 1.19 | 0.00 | 80 | 1021.4 |
| 20260902160937 | 21 | 147 | 3.2 | 9.7 | 0.00 | 1.19 | 0.00 | 81 | 1021.7 |
| 20260902155937 | 21 | 236 | 1.6 | 8.0 | 0.00 | 1.19 | 0.00 | 82 | 1021.8 |
| 20260902155412 | 20 | 58 | 1.6 | 6.4 | 0.00 | 1.19 | 0.00 | 85 | 1021.8 |
| 20260902153938 | 20 | 204 | 1.6 | 6.4 | 0.00 | 1.19 | 0.00 | 85 | 1022.0 |
| 20260902152931 | 20 | 92 | 1.6 | 6.4 | 0.00 | 1.19 | 0.00 | 85 | 1022.0 |
| 20260902151928 | 19 | 154 | 1.6 | 9.7 | 0.00 | 1.19 | 0.00 | 87 | 1022.0 |
| 20260902150929 | 19 | 126 | 0.0 | 4.8 | 0.00 | 1.19 | 0.00 | 91 | 1021.9 |
| 20260902150408 | 18 | 301 | 0.0 | 6.4 | 0.00 | 1.19 | 0.00 | 92 | 1022.1 |
| 20260902144929 | 18 | 39 | 0.0 | 4.8 | 0.00 | 1.19 | 0.00 | 93 | 1022.1 |
| 20260902143914 | 18 | 65 | 0.0 | 0.0 | 0.00 | 1.19 | 0.00 | 94 | 1021.9 |
| 20260902142916 | 18 | 160 | 0.0 | 0.0 | 0.00 | 1.19 | 0.00 | 95 | 1021.8 |
| 20260902141912 | 18 | 301 | 0.0 | 0.0 | 0.00 | 1.19 | 0.00 | 95 | 1021.8 |
| 20260902140912 | 17 | 301 | 0.0 | 3.2 | 0.00 | 1.19 | 0.00 | 95 | 1021.4 |
| 20260902135912 | 17 | 301 | 0.0 | 4.8 | 0.00 | 1.19 | 0.00 | 95 | 1021.3 |
| 20260902134912 | 17 | 113 | 1.6 | 4.8 | 0.00 | 1.19 | 0.00 | 95 | 1021.3 |
| 20260902133910 | 17 | 45 | 0.0 | 4.8 | 0.00 | 1.19 | 0.00 | 95 | 1021.3 |
| 20260902133350 | 17 | 114 | 0.0 | 8.0 | 0.00 | 1.19 | 0.00 | 95 | 1021.2 |
| 20260902131908 | 17 | 46 | 1.6 | 8.0 | 0.00 | 1.19 | 0.00 | 95 | 1021.2 |
| 20260902130909 | 17 | 301 | 0.0 | 3.2 | 0.00 | 1.19 | 0.00 | 95 | 1021.3 |
| 20260902125909 | 16 | 140 | 0.0 | 3.2 | 0.00 | 1.19 | 0.00 | 95 | 1021.4 |
| 20260902124909 | 16 | 141 | 0.0 | 1.6 | 0.00 | 1.24 | 0.00 | 95 | 1021.4 |
| 20260902123908 | 16 | 301 | 0.0 | 0.0 | 0.00 | 1.24 | 0.00 | 95 | 1021.8 |
| 20260902122908 | 16 | 301 | 0.0 | 0.0 | 0.00 | 1.32 | 0.00 | 95 | 1021.5 |
| 20260902121908 | 16 | 301 | 0.0 | 0.0 | 0.00 | 1.42 | 0.00 | 95 | 1021.5 |
| 20260902120908 | 16 | 301 | 0.0 | 0.0 | 0.00 | 1.45 | 0.00 | 95 | 1021.6 |
| 20260902115909 | 16 | 301 | 0.0 | 0.0 | 0.00 | 1.45 | 0.00 | 95 | 1021.8 |
| 20260902114908 | 16 | 301 | 0.0 | 0.0 | 0.00 | 1.47 | 0.00 | 95 | 1021.8 |
| 20260902113909 | 16 | 301 | 0.0 | 0.0 | 0.00 | 1.47 | 0.00 | 95 | 1021.8 |
| 20260902112859 | 16 | 301 | 0.0 | 0.0 | 0.00 | 1.47 | 0.00 | 95 | 1021.5 |
| 20260902111859 | 16 | 141 | 0.0 | 0.0 | 0.00 | 1.47 | 0.00 | 95 | 1021.5 |
| 20260902110858 | 16 | 141 | 0.0 | 0.0 | 0.00 | 1.47 | 0.00 | 95 | 1021.7 |
| 20260902110820 | 16 | 141 | 0.0 | 0.0 | 0.00 | 1.47 | 0.00 | 95 | 1021.3 |
| 20260902104858 | 15 | 141 | 0.0 | 0.0 | 0.00 | 1.47 | 0.00 | 95 | 1021.3 |
| 20260902103858 | 15 | 141 | 0.0 | 0.0 | 0.00 | 1.47 | 0.00 | 95 | 1021.0 |
| 20260902102844 | 15 | 141 | 0.0 | 0.0 | 0.00 | 1.50 | 0.00 | 95 | 1021.1 |
| 20260902101845 | 15 | 141 | 0.0 | 0.0 | 0.00 | 1.50 | 0.00 | 95 | 1021.1 |
| 20260902100845 | 15 | 141 | 0.0 | 0.0 | 0.00 | 1.50 | 0.00 | 95 | 1020.8 |
| 20260902095844 | 15 | 141 | 0.0 | 0.0 | 0.00 | 1.50 | 0.00 | 95 | 1020.8 |
| 20260902094844 | 15 | 141 | 0.0 | 0.0 | 0.00 | 1.50 | 0.00 | 95 | 1020.8 |
| 20260902093846 | 15 | 141 | 0.0 | 0.0 | 0.00 | 1.52 | 0.00 | 95 | 1020.7 |
| 20260902092836 | 15 | 141 | 0.0 | 0.0 | 0.00 | 1.52 | 0.00 | 94 | 1020.5 |
| 20260902092315 | 15 | 141 | 0.0 | 0.0 | 0.00 | 1.52 | 0.00 | 94 | 1020.5 |
| 20260902090835 | 15 | 141 | 0.0 | 0.0 | 0.00 | 1.52 | 0.00 | 94 | 1020.3 |
| 20260902085836 | 15 | 141 | 0.0 | 0.0 | 0.00 | 1.52 | 0.00 | 94 | 1020.2 |
| 20260902084835 | 16 | 141 | 0.0 | 0.0 | 0.00 | 1.52 | 0.00 | 95 | 1020.2 |
| 20260902083834 | 16 | 141 | 0.0 | 0.0 | 0.00 | 1.52 | 0.00 | 95 | 1020.2 |
| 20260902082835 | 16 | 141 | 0.0 | 0.0 | 0.00 | 1.52 | 0.00 | 95 | 1020.3 |
| 20260902082311 | 16 | 141 | 0.0 | 0.0 | 0.00 | 1.52 | 0.00 | 95 | 1020.3 |
| 20260902080835 | 16 | 141 | 0.0 | 0.0 | 0.00 | 1.52 | 0.00 | 95 | 1020.3 |
| 20260902080311 | 16 | 141 | 0.0 | 0.0 | 0.00 | 1.52 | 0.00 | 95 | 1020.3 |
| 20260902074835 | 16 | 141 | 0.0 | 0.0 | 0.00 | 1.52 | 0.00 | 94 | 1020.3 |
| 20260902073823 | 16 | 141 | 0.0 | 0.0 | 0.00 | 1.52 | 0.00 | 94 | 1020.6 |
| 20260902072821 | 15 | 141 | 0.0 | 0.0 | 0.00 | 1.52 | 0.00 | 94 | 1020.4 |
| 20260902072257 | 15 | 141 | 0.0 | 0.0 | 0.00 | 1.52 | 0.00 | 94 | 1020.4 |
| 20260902070821 | 15 | 141 | 0.0 | 0.0 | 0.00 | 1.52 | 0.00 | 94 | 1020.3 |
| 20260902065820 | 15 | 141 | 0.0 | 0.0 | 0.00 | 1.52 | 0.00 | 94 | 1020.2 |
| 20260902064821 | 15 | 141 | 0.0 | 0.0 | 0.00 | 1.52 | 0.00 | 94 | 1020.2 |
| 20260902063817 | 15 | 141 | 0.0 | 0.0 | 0.00 | 1.52 | 0.00 | 94 | 1020.3 |
| 20260902062817 | 15 | 141 | 0.0 | 0.0 | 0.00 | 1.52 | 0.00 | 94 | 1020.3 |
| 20260902061817 | 15 | 141 | 0.0 | 0.0 | 0.00 | 1.52 | 0.00 | 94 | 1020.3 |
| 20260902060818 | 15 | 141 | 0.0 | 0.0 | 0.00 | 1.52 | 0.00 | 94 | 1020.3 |
| 20260902055817 | 15 | 141 | 0.0 | 0.0 | 0.00 | 1.52 | 0.00 | 94 | 1020.3 |
| 20260902054818 | 15 | 141 | 0.0 | 0.0 | 0.00 | 1.52 | 0.00 | 94 | 1020.3 |
| 20260902053813 | 15 | 141 | 0.0 | 0.0 | 0.00 | 1.52 | 0.00 | 94 | 1020.2 |
| 20260902052811 | 15 | 141 | 0.0 | 0.0 | 0.00 | 1.52 | 0.00 | 94 | 1020.2 |
| 20260902051811 | 15 | 141 | 0.0 | 0.0 | 0.00 | 1.52 | 0.00 | 94 | 1020.2 |
| 20260902050812 | 15 | 141 | 0.0 | 0.0 | 0.00 | 1.52 | 0.00 | 94 | 1019.8 |
| 20260902045809 | 15 | 141 | 0.0 | 0.0 | 0.00 | 1.52 | 0.00 | 94 | 1019.7 |
| 20260902044807 | 15 | 141 | 0.0 | 0.0 | 0.00 | 1.52 | 0.00 | 94 | 1019.7 |
| 20260902043809 | 15 | 141 | 0.0 | 0.0 | 0.00 | 1.52 | 0.00 | 94 | 1019.3 |
| 20260902042808 | 15 | 141 | 0.0 | 0.0 | 0.00 | 1.52 | 0.00 | 94 | 1019.4 |
| 20260902041807 | 15 | 141 | 0.0 | 0.0 | 0.00 | 1.52 | 0.00 | 94 | 1019.4 |
| 20260902040807 | 15 | 141 | 0.0 | 0.0 | 0.00 | 1.52 | 0.00 | 94 | 1019.2 |
| 20260902040248 | 15 | 141 | 0.0 | 0.0 | 0.00 | 1.52 | 1.52 | 94 | 1018.7 |
| 20260902034802 | 15 | 141 | 0.0 | 0.0 | 0.00 | 1.52 | 1.52 | 94 | 1018.7 |
| 20260902033803 | 15 | 141 | 0.0 | 0.0 | 0.00 | 1.52 | 1.52 | 94 | 1018.6 |
| 20260902032802 | 16 | 141 | 0.0 | 0.0 | 0.00 | 1.52 | 1.52 | 94 | 1018.7 |
| 20260902031802 | 16 | 141 | 0.0 | 0.0 | 0.00 | 1.52 | 1.52 | 94 | 1018.7 |
| 20260902031238 | 16 | 141 | 0.0 | 0.0 | 0.00 | 1.52 | 1.52 | 94 | 1018.8 |
| 20260902025800 | 16 | 141 | 0.0 | 0.0 | 0.00 | 1.52 | 1.52 | 94 | 1018.7 |
| 20260902024802 | 16 | 141 | 0.0 | 0.0 | 0.00 | 1.52 | 1.52 | 94 | 1018.7 |
| 20260902024734 | 16 | 141 | 0.0 | 0.0 | 0.00 | 1.52 | 1.52 | 94 | 1019.0 |
| 20260902023715 | 16 | 141 | 0.0 | 0.0 | 0.00 | 1.52 | 1.52 | 94 | 1019.1 |
| 20260902021801 | 16 | 141 | 0.0 | 0.0 | 0.00 | 1.52 | 1.52 | 94 | 1019.1 |
| 20260902020800 | 16 | 141 | 0.0 | 0.0 | 0.00 | 1.52 | 1.52 | 94 | 1019.1 |
| 20260902015750 | 16 | 141 | 0.0 | 0.0 | 0.00 | 1.52 | 1.52 | 94 | 1019.0 |
| 20260902014752 | 16 | 141 | 0.0 | 0.0 | 0.00 | 1.52 | 1.52 | 94 | 1019.0 |
| 20260902013751 | 16 | 141 | 0.0 | 0.0 | 0.00 | 1.52 | 1.52 | 94 | 1018.7 |
| 20260902013230 | 16 | 141 | 0.0 | 0.0 | 0.00 | 1.52 | 1.52 | 94 | 1018.7 |
| 20260902011754 | 16 | 141 | 0.0 | 0.0 | 0.00 | 1.52 | 1.52 | 94 | 1018.7 |
| 20260902010748 | 16 | 141 | 0.0 | 0.0 | 0.00 | 1.52 | 1.52 | 94 | 1018.9 |
| 20260902005746 | 16 | 141 | 0.0 | 0.0 | 0.00 | 1.52 | 1.52 | 94 | 1018.7 |
| 20260902004746 | 16 | 141 | 0.0 | 0.0 | 0.00 | 1.52 | 1.52 | 94 | 1018.7 |
| 20260902004232 | 16 | 141 | 0.0 | 0.0 | 0.00 | 1.52 | 1.52 | 93 | 1018.5 |
| 20260902002732 | 16 | 141 | 0.0 | 0.0 | 0.00 | 1.52 | 1.52 | 93 | 1018.3 |
| 20260902002209 | 16 | 141 | 0.0 | 0.0 | 0.00 | 1.52 | 1.52 | 94 | 1018.3 |
| 20260902000729 | 16 | 141 | 0.0 | 0.0 | 0.00 | 1.52 | 1.52 | 94 | 1018.2 |
| 20260901235726 | 16 | 141 | 0.0 | 0.0 | 0.00 | 1.52 | 1.52 | 94 | 1018.2 |
| 20260901235202 | 16 | 141 | 0.0 | 0.0 | 0.00 | 1.52 | 1.52 | 94 | 1018.2 |
| 20260901233724 | 16 | 141 | 0.0 | 0.0 | 0.00 | 1.52 | 1.52 | 94 | 1018.3 |
| 20260901232726 | 16 | 141 | 0.0 | 0.0 | 0.00 | 1.52 | 1.52 | 94 | 1018.4 |
| 20260901231724 | 16 | 141 | 0.0 | 0.0 | 0.00 | 1.52 | 1.52 | 94 | 1018.4 |
| 20260901230725 | 16 | 141 | 0.0 | 0.0 | 0.00 | 1.52 | 1.52 | 93 | 1018.2 |
| 20260901225724 | 16 | 141 | 0.0 | 0.0 | 0.00 | 1.52 | 1.52 | 93 | 1018.1 |
| 20260901224725 | 16 | 141 | 0.0 | 0.0 | 0.00 | 1.52 | 1.52 | 93 | 1018.1 |
| 20260901223725 | 16 | 141 | 0.0 | 0.0 | 0.00 | 1.52 | 1.52 | 93 | 1018.1 |
| 20260901222723 | 16 | 141 | 0.0 | 0.0 | 0.00 | 1.52 | 1.52 | 93 | 1018.2 |
| 20260901221713 | 16 | 141 | 0.0 | 0.0 | 0.00 | 1.52 | 1.52 | 93 | 1018.2 |
| 20260901221618 | 16 | 141 | 0.0 | 1.6 | 0.00 | 1.52 | 1.52 | 93 | 1018.1 |
| 20260901215713 | 16 | 141 | 0.0 | 1.6 | 0.03 | 1.52 | 1.52 | 93 | 1018.1 |
| 20260901215045 | 17 | 106 | 0.0 | 0.0 | 0.08 | 1.52 | 1.52 | 93 | 1017.8 |
| 20260901214712 | 16 | 141 | 0.0 | 8.0 | 0.03 | 1.52 | 1.52 | 93 | 1018.1 |
| 20260901213746 | 17 | 193 | 0.0 | 0.0 | 0.05 | 1.52 | 1.52 | 93 | 1017.8 |
| 20260901212154 | 17 | 156 | 0.0 | 4.8 | 0.10 | 1.52 | 1.52 | 93 | 1017.8 |
| 20260901210713 | 17 | 161 | 1.6 | 8.0 | 0.13 | 1.52 | 1.52 | 93 | 1017.7 |
| 20260901205703 | 17 | 173 | 1.6 | 9.7 | 0.13 | 1.50 | 1.50 | 93 | 1017.5 |